GSAT-8 (GAGAN/PRN 127)

Last updated on Sun Oct 19 2025 00:03:28 GMT+0000 (Coordinated Universal Time)

1 37605U 11022A 25291.13648205 .00000079 00000+0 00000+0 0 9999 2 37605 1.5021 84.8323 0007678 162.4659 243.8114 1.00272704 50798
UTC large
Height (km)
Speed (km/s)
/
Latitude / Longitude
Inclination (degrees)
Orbital Period (minutes)
Azimuth
Elevation
Range (km)
Doppler Factor

Next 0 passes for location: London (51.5072 / 0.1276)

Sorry there are no passes over London.